Year,Month,Day,Hour,Minute,Value (Times are PST for temperature in C)
2006,02,19,00,00,-1.80
2006,02,19,00,01,-1.80
2006,02,19,00,02,-1.80
2006,02,19,00,03,-1.90
2006,02,19,00,04,-1.90
2006,02,19,00,05,-1.90
2006,02,19,00,06,-1.90
2006,02,19,00,07,-1.90
2006,02,19,00,08,-1.90
2006,02,19,00,09,-2.00
2006,02,19,00,10,-2.00
2006,02,19,00,11,-2.00
2006,02,19,00,12,-2.00
2006,02,19,00,13,-2.00
2006,02,19,00,14,-2.00
2006,02,19,00,15,-2.00
2006,02,19,00,16,-2.00
2006,02,19,00,17,-2.00
2006,02,19,00,18,-2.00
2006,02,19,00,19,-2.00
2006,02,19,00,20,-2.10
2006,02,19,00,21,-2.10
2006,02,19,00,22,-2.10
2006,02,19,00,23,-2.10
2006,02,19,00,24,-2.10
2006,02,19,00,25,-2.10
2006,02,19,00,26,-2.00
2006,02,19,00,27,-2.00
2006,02,19,00,28,-2.00
2006,02,19,00,29,-1.90
2006,02,19,00,30,-1.80
2006,02,19,00,31,-1.80
2006,02,19,00,32,-1.80
2006,02,19,00,33,-1.80
2006,02,19,00,34,-1.80
2006,02,19,00,35,-1.70
2006,02,19,00,36,-1.70
2006,02,19,00,37,-1.70
2006,02,19,00,38,-1.60
2006,02,19,00,39,-1.60
2006,02,19,00,40,-1.60
2006,02,19,00,41,-1.60
2006,02,19,00,42,-1.50
2006,02,19,00,43,-1.50
2006,02,19,00,44,-1.50
2006,02,19,00,45,-1.50
2006,02,19,00,46,-1.50
2006,02,19,00,47,-1.50
2006,02,19,00,48,-1.50
2006,02,19,00,49,-1.40
2006,02,19,00,50,-1.40
2006,02,19,00,51,-1.40
2006,02,19,00,52,-1.40
2006,02,19,00,53,-1.30
2006,02,19,00,54,-1.30
2006,02,19,00,55,-1.20
2006,02,19,00,56,-1.10
2006,02,19,00,57,-1.10
2006,02,19,00,58,-1.10
2006,02,19,00,59,-1.10
2006,02,19,01,00,-1.20
2006,02,19,01,01,-1.20
2006,02,19,01,02,-1.20
2006,02,19,01,03,-1.20
2006,02,19,01,04,-1.10
2006,02,19,01,05,-1.10
2006,02,19,01,06,-1.10
2006,02,19,01,07,-1.10
2006,02,19,01,08,-1.10
2006,02,19,01,09,-1.10
2006,02,19,01,10,-1.10
2006,02,19,01,11,-1.10
2006,02,19,01,12,-1.10
2006,02,19,01,13,-1.10
2006,02,19,01,14,-1.10
2006,02,19,01,15,-1.10
2006,02,19,01,16,-1.00
2006,02,19,01,17,-0.90
2006,02,19,01,18,-0.90
2006,02,19,01,19,-0.90
2006,02,19,01,20,-0.80
2006,02,19,01,21,-0.70
2006,02,19,01,22,-0.60
2006,02,19,01,23,-0.60
2006,02,19,01,24,-0.40
2006,02,19,01,25,-0.20
2006,02,19,01,26,-0.10
2006,02,19,01,27,0.00
2006,02,19,01,28,0.10
2006,02,19,01,29,0.20
2006,02,19,01,30,0.20
2006,02,19,01,31,0.30
2006,02,19,01,32,0.40
2006,02,19,01,33,0.40
2006,02,19,01,34,0.40
2006,02,19,01,35,0.50
2006,02,19,01,36,0.50
2006,02,19,01,37,0.50
2006,02,19,01,38,0.60
2006,02,19,01,39,0.60
2006,02,19,01,40,0.60
2006,02,19,01,41,0.70
2006,02,19,01,42,0.70
2006,02,19,01,43,0.70
2006,02,19,01,44,0.80
2006,02,19,01,45,0.80
2006,02,19,01,46,0.80
2006,02,19,01,47,0.90
2006,02,19,01,48,0.90
2006,02,19,01,49,0.90
2006,02,19,01,50,1.00
2006,02,19,01,51,1.00
2006,02,19,01,52,1.00
2006,02,19,01,53,1.10
2006,02,19,01,54,1.10
2006,02,19,01,55,1.00
2006,02,19,01,56,1.00
2006,02,19,01,57,1.00
2006,02,19,01,58,1.00
2006,02,19,01,59,1.00
2006,02,19,02,00,1.00
2006,02,19,02,01,1.00
2006,02,19,02,02,1.00
2006,02,19,02,03,1.00
2006,02,19,02,04,1.00
2006,02,19,02,05,1.10
2006,02,19,02,06,1.00
2006,02,19,02,07,1.00
2006,02,19,02,08,1.00
2006,02,19,02,09,1.10
2006,02,19,02,10,1.10
2006,02,19,02,11,1.10
2006,02,19,02,12,1.10
2006,02,19,02,13,1.10
2006,02,19,02,14,1.10
2006,02,19,02,15,1.10
2006,02,19,02,16,1.10
2006,02,19,02,17,1.10
2006,02,19,02,18,1.10
2006,02,19,02,19,1.10
2006,02,19,02,20,1.10
2006,02,19,02,21,1.10
2006,02,19,02,22,1.20
2006,02,19,02,23,1.20
2006,02,19,02,24,1.20
2006,02,19,02,25,1.30
2006,02,19,02,26,1.30
2006,02,19,02,27,1.30
2006,02,19,02,28,1.30
2006,02,19,02,29,1.30
2006,02,19,02,30,1.30
2006,02,19,02,31,1.30
2006,02,19,02,32,1.30
2006,02,19,02,33,1.30
2006,02,19,02,34,1.20
2006,02,19,02,35,1.20
2006,02,19,02,36,1.20
2006,02,19,02,37,1.20
2006,02,19,02,38,1.20
2006,02,19,02,39,1.30
2006,02,19,02,40,1.20
2006,02,19,02,41,1.20
2006,02,19,02,42,1.20
2006,02,19,02,43,1.20
2006,02,19,02,44,1.20
2006,02,19,02,45,1.20
2006,02,19,02,46,1.20
2006,02,19,02,47,1.30
2006,02,19,02,48,1.30
2006,02,19,02,49,1.30
2006,02,19,02,50,1.30
2006,02,19,02,51,1.30
2006,02,19,02,52,1.30
2006,02,19,02,53,1.30
2006,02,19,02,54,1.30
2006,02,19,02,55,1.30
2006,02,19,02,56,1.40
2006,02,19,02,57,1.40
2006,02,19,02,58,1.40
2006,02,19,02,59,1.50
2006,02,19,03,00,1.50
2006,02,19,03,01,1.50
2006,02,19,03,02,1.50
2006,02,19,03,03,1.50
2006,02,19,03,04,1.60
2006,02,19,03,05,1.60
2006,02,19,03,06,1.60
2006,02,19,03,07,1.60
2006,02,19,03,08,1.60
2006,02,19,03,09,1.60
2006,02,19,03,10,1.60
2006,02,19,03,11,1.60
2006,02,19,03,12,1.60
2006,02,19,03,13,1.50
2006,02,19,03,14,1.50
2006,02,19,03,15,1.50
2006,02,19,03,16,1.50
2006,02,19,03,17,1.50
2006,02,19,03,18,1.50
2006,02,19,03,19,1.50
2006,02,19,03,20,1.60
2006,02,19,03,21,1.50
2006,02,19,03,22,1.50
2006,02,19,03,23,1.50
2006,02,19,03,24,1.60
2006,02,19,03,25,1.50
2006,02,19,03,26,1.60
2006,02,19,03,27,1.60
2006,02,19,03,28,1.60
2006,02,19,03,29,1.60
2006,02,19,03,30,1.60
2006,02,19,03,31,1.60
2006,02,19,03,32,1.60
2006,02,19,03,33,1.60
2006,02,19,03,34,1.60
2006,02,19,03,35,1.60
2006,02,19,03,36,1.60
2006,02,19,03,37,1.50
2006,02,19,03,38,1.50
2006,02,19,03,39,1.50
2006,02,19,03,40,1.50
2006,02,19,03,41,1.50
2006,02,19,03,42,1.50
2006,02,19,03,43,1.40
2006,02,19,03,44,1.40
2006,02,19,03,45,1.40
2006,02,19,03,46,1.40
2006,02,19,03,47,1.40
2006,02,19,03,48,1.40
2006,02,19,03,49,1.40
2006,02,19,03,50,1.40
2006,02,19,03,51,1.40
2006,02,19,03,52,1.40
2006,02,19,03,53,1.40
2006,02,19,03,54,1.40
2006,02,19,03,55,1.40
2006,02,19,03,56,1.40
2006,02,19,03,57,1.40
2006,02,19,03,58,1.40
2006,02,19,03,59,1.40
2006,02,19,04,00,1.40
2006,02,19,04,01,1.40
2006,02,19,04,02,1.40
2006,02,19,04,03,1.40
2006,02,19,04,04,1.40
2006,02,19,04,05,1.40
2006,02,19,04,06,1.40
2006,02,19,04,07,1.40
2006,02,19,04,08,1.30
2006,02,19,04,09,1.30
2006,02,19,04,10,1.30
2006,02,19,04,11,1.30
2006,02,19,04,12,1.30
2006,02,19,04,13,1.30
2006,02,19,04,14,1.30
2006,02,19,04,15,1.30
2006,02,19,04,16,1.30
2006,02,19,04,17,1.30
2006,02,19,04,18,1.30
2006,02,19,04,19,1.30
2006,02,19,04,20,1.30
2006,02,19,04,21,1.30
2006,02,19,04,22,1.30
2006,02,19,04,23,1.30
2006,02,19,04,24,1.30
2006,02,19,04,25,1.30
2006,02,19,04,26,1.30
2006,02,19,04,27,1.30
2006,02,19,04,28,1.30
2006,02,19,04,29,1.30
2006,02,19,04,30,1.30
2006,02,19,04,31,1.30
2006,02,19,04,32,1.30
2006,02,19,04,33,1.30
2006,02,19,04,34,1.30
2006,02,19,04,35,1.30
2006,02,19,04,36,1.30
2006,02,19,04,37,1.30
2006,02,19,04,38,1.30
2006,02,19,04,39,1.30
2006,02,19,04,40,1.30
2006,02,19,04,41,1.30
2006,02,19,04,42,1.30
2006,02,19,04,43,1.30
2006,02,19,04,44,1.30
2006,02,19,04,45,1.30
2006,02,19,04,46,1.40
2006,02,19,04,47,1.40
2006,02,19,04,48,1.40
2006,02,19,04,49,1.40
2006,02,19,04,50,1.40
2006,02,19,04,51,1.40
2006,02,19,04,52,1.40
2006,02,19,04,53,1.40
2006,02,19,04,54,1.40
2006,02,19,04,55,1.40
2006,02,19,04,56,1.40
2006,02,19,04,57,1.40
2006,02,19,04,58,1.40
2006,02,19,04,59,1.40
2006,02,19,05,00,1.40
2006,02,19,05,01,1.40
2006,02,19,05,02,1.40
2006,02,19,05,03,1.40
2006,02,19,05,04,1.40
2006,02,19,05,05,1.40
2006,02,19,05,06,1.30
2006,02,19,05,07,1.30
2006,02,19,05,08,1.30
2006,02,19,05,09,1.30
2006,02,19,05,10,1.30
2006,02,19,05,11,1.30
2006,02,19,05,12,1.30
2006,02,19,05,13,1.30
2006,02,19,05,14,1.30
2006,02,19,05,15,1.30
2006,02,19,05,16,1.20
2006,02,19,05,17,1.20
2006,02,19,05,18,1.10
2006,02,19,05,19,1.10
2006,02,19,05,20,1.10
2006,02,19,05,21,1.10
2006,02,19,05,22,1.10
2006,02,19,05,23,1.10
2006,02,19,05,24,1.10
2006,02,19,05,25,1.10
2006,02,19,05,26,1.10
2006,02,19,05,27,1.10
2006,02,19,05,28,1.10
2006,02,19,05,29,1.20
2006,02,19,05,30,1.20
2006,02,19,05,31,1.20
2006,02,19,05,32,1.20
2006,02,19,05,33,1.20
2006,02,19,05,34,1.20
2006,02,19,05,35,1.20
2006,02,19,05,36,1.10
2006,02,19,05,37,1.10
2006,02,19,05,38,1.10
2006,02,19,05,39,1.20
2006,02,19,05,40,1.10
2006,02,19,05,41,1.10
2006,02,19,05,42,1.10
2006,02,19,05,43,1.10
2006,02,19,05,44,1.10
2006,02,19,05,45,1.10
2006,02,19,05,46,1.10
2006,02,19,05,47,1.10
2006,02,19,05,48,1.10
2006,02,19,05,49,1.10
2006,02,19,05,50,1.10
2006,02,19,05,51,1.10
2006,02,19,05,52,1.10
2006,02,19,05,53,1.00
2006,02,19,05,54,1.00
2006,02,19,05,55,1.00
2006,02,19,05,56,1.00
2006,02,19,05,57,1.00
2006,02,19,05,58,1.00
2006,02,19,05,59,1.00
2006,02,19,06,00,1.00
2006,02,19,06,01,1.00
2006,02,19,06,02,1.00
2006,02,19,06,03,0.90
2006,02,19,06,04,0.90
2006,02,19,06,05,0.90
2006,02,19,06,06,0.80
2006,02,19,06,07,0.80
2006,02,19,06,08,0.80
2006,02,19,06,09,0.80
2006,02,19,06,10,0.80
2006,02,19,06,11,0.80
2006,02,19,06,12,0.80
2006,02,19,06,13,0.80
2006,02,19,06,14,0.80
2006,02,19,06,15,0.80
2006,02,19,06,16,0.80
2006,02,19,06,17,0.80
2006,02,19,06,18,0.80
2006,02,19,06,19,0.80
2006,02,19,06,20,0.70
2006,02,19,06,21,0.70
2006,02,19,06,22,0.70
2006,02,19,06,23,0.70
2006,02,19,06,24,0.70
2006,02,19,06,25,0.70
2006,02,19,06,26,0.70
2006,02,19,06,27,0.70
2006,02,19,06,28,0.70
2006,02,19,06,29,0.70
2006,02,19,06,30,0.70
2006,02,19,06,31,0.70
2006,02,19,06,32,0.70
2006,02,19,06,33,0.60
2006,02,19,06,34,0.60
2006,02,19,06,35,0.60
2006,02,19,06,36,0.50
2006,02,19,06,37,0.50
2006,02,19,06,38,0.40
2006,02,19,06,39,0.40
2006,02,19,06,40,0.40
2006,02,19,06,41,0.20
2006,02,19,06,42,0.10
2006,02,19,06,43,0.00
2006,02,19,06,44,-0.20
2006,02,19,06,45,-0.30
2006,02,19,06,46,-0.40
2006,02,19,06,47,-0.40
2006,02,19,06,48,-0.50
2006,02,19,06,49,-0.60
2006,02,19,06,50,-0.60
2006,02,19,06,51,-0.60
2006,02,19,06,52,-0.60
2006,02,19,06,53,-0.70
2006,02,19,06,54,-0.70
2006,02,19,06,55,-0.70
2006,02,19,06,56,-0.70
2006,02,19,06,57,-0.80
2006,02,19,06,58,-0.90
2006,02,19,06,59,-0.90
2006,02,19,07,00,-1.00
2006,02,19,07,01,-1.10
2006,02,19,07,02,-1.10
2006,02,19,07,03,-1.20
2006,02,19,07,04,-1.30
2006,02,19,07,05,-1.30
2006,02,19,07,06,-1.40
2006,02,19,07,07,-1.40
2006,02,19,07,08,-1.40
2006,02,19,07,09,-1.50
2006,02,19,07,10,-1.50
2006,02,19,07,11,-1.60
2006,02,19,07,12,-1.60
2006,02,19,07,13,-1.70
2006,02,19,07,14,-1.70
2006,02,19,07,15,-1.70
2006,02,19,07,16,-1.80
2006,02,19,07,17,-1.80
2006,02,19,07,18,-1.80
2006,02,19,07,19,-1.80
2006,02,19,07,20,-1.90
2006,02,19,07,21,-1.90
2006,02,19,07,22,-1.90
2006,02,19,07,23,-2.00
2006,02,19,07,24,-2.00
2006,02,19,07,25,-2.00
2006,02,19,07,26,-2.00
2006,02,19,07,27,-2.10
2006,02,19,07,28,-2.10
2006,02,19,07,29,-2.10
2006,02,19,07,30,-2.10
2006,02,19,07,31,-2.10
2006,02,19,07,32,-2.10
2006,02,19,07,33,-2.10
2006,02,19,07,34,-2.00
2006,02,19,07,35,-2.00
2006,02,19,07,36,-1.90
2006,02,19,07,37,-1.90
2006,02,19,07,38,-1.80
2006,02,19,07,39,-1.80
2006,02,19,07,40,-1.80
2006,02,19,07,41,-1.80
2006,02,19,07,42,-1.70
2006,02,19,07,43,-1.70
2006,02,19,07,44,-1.60
2006,02,19,07,45,-1.60
2006,02,19,07,46,-1.60
2006,02,19,07,47,-1.50
2006,02,19,07,48,-1.50
2006,02,19,07,49,-1.40
2006,02,19,07,50,-1.40
2006,02,19,07,51,-1.40
2006,02,19,07,52,-1.40
2006,02,19,07,53,-1.40
2006,02,19,07,54,-1.30
2006,02,19,07,55,-1.30
2006,02,19,07,56,-1.30
2006,02,19,07,57,-1.20
2006,02,19,07,58,-1.20
2006,02,19,07,59,-1.10
2006,02,19,08,00,-1.10
2006,02,19,08,01,-1.10
2006,02,19,08,02,-1.10
2006,02,19,08,03,-1.10
2006,02,19,08,04,-1.10
2006,02,19,08,05,-1.10
2006,02,19,08,06,-1.00
2006,02,19,08,07,-0.90
2006,02,19,08,08,-0.90
2006,02,19,08,09,-0.90
2006,02,19,08,10,-0.70
2006,02,19,08,11,-0.60
2006,02,19,08,12,-0.40
2006,02,19,08,13,-0.40
2006,02,19,08,14,-0.30
2006,02,19,08,15,-0.10
2006,02,19,08,16,0.00
2006,02,19,08,17,0.10
2006,02,19,08,18,0.10
2006,02,19,08,19,0.20
2006,02,19,08,20,0.30
2006,02,19,08,21,0.40
2006,02,19,08,22,0.40
2006,02,19,08,23,0.50
2006,02,19,08,24,0.50
2006,02,19,08,25,0.60
2006,02,19,08,26,0.70
2006,02,19,08,27,0.80
2006,02,19,08,28,0.80
2006,02,19,08,29,0.90
2006,02,19,08,30,1.00
2006,02,19,08,31,1.10
2006,02,19,08,32,1.10
2006,02,19,08,33,1.20
2006,02,19,08,34,1.30
2006,02,19,08,35,1.30
2006,02,19,08,36,1.40
2006,02,19,08,37,1.40
2006,02,19,08,38,1.50
2006,02,19,08,39,1.50
2006,02,19,08,40,1.60
2006,02,19,08,41,1.60
2006,02,19,08,42,1.60
2006,02,19,08,43,1.70
2006,02,19,08,44,1.70
2006,02,19,08,45,1.70
2006,02,19,08,46,1.80
2006,02,19,08,47,1.80
2006,02,19,08,48,1.80
2006,02,19,08,49,1.80
2006,02,19,08,50,1.90
2006,02,19,08,51,1.90
2006,02,19,08,52,2.00
2006,02,19,08,53,2.00
2006,02,19,08,54,2.10
2006,02,19,08,55,2.10
2006,02,19,08,56,2.10
2006,02,19,08,57,2.20
2006,02,19,08,58,2.20
2006,02,19,08,59,2.20
2006,02,19,09,00,2.20
2006,02,19,09,01,2.20
2006,02,19,09,02,2.20
2006,02,19,09,03,2.20
2006,02,19,09,04,2.20
2006,02,19,09,05,2.30
2006,02,19,09,06,2.30
2006,02,19,09,07,2.30
2006,02,19,09,08,2.40
2006,02,19,09,09,2.40
2006,02,19,09,10,2.40
2006,02,19,09,11,2.50
2006,02,19,09,12,2.50
2006,02,19,09,13,2.50
2006,02,19,09,14,2.50
2006,02,19,09,15,2.60
2006,02,19,09,16,2.60
2006,02,19,09,17,2.70
2006,02,19,09,18,2.70
2006,02,19,09,19,2.70
2006,02,19,09,20,2.80
2006,02,19,09,21,2.80
2006,02,19,09,22,2.90
2006,02,19,09,23,2.90
2006,02,19,09,24,2.90
2006,02,19,09,25,2.90
2006,02,19,09,26,2.90
2006,02,19,09,27,2.90
2006,02,19,09,28,2.90
2006,02,19,09,29,2.90
2006,02,19,09,30,3.10
2006,02,19,09,31,3.10
2006,02,19,09,32,3.20
2006,02,19,09,33,3.30
2006,02,19,09,34,3.30
2006,02,19,09,35,3.30
2006,02,19,09,36,3.30
2006,02,19,09,37,3.30
2006,02,19,09,38,3.40
2006,02,19,09,39,3.40
2006,02,19,09,40,3.50
2006,02,19,09,41,3.60
2006,02,19,09,42,3.70
2006,02,19,09,43,3.80
2006,02,19,09,44,3.80
2006,02,19,09,45,3.80
2006,02,19,09,46,3.80
2006,02,19,09,47,3.70
2006,02,19,09,48,3.70
2006,02,19,09,49,3.80
2006,02,19,09,50,3.70
2006,02,19,09,51,3.70
2006,02,19,09,52,3.60
2006,02,19,09,53,3.60
2006,02,19,09,54,3.60
2006,02,19,09,55,3.60
2006,02,19,09,56,3.60
2006,02,19,09,57,3.60
2006,02,19,09,58,3.60
2006,02,19,09,59,3.60
2006,02,19,10,00,3.70
2006,02,19,10,01,3.70
2006,02,19,10,02,3.70
2006,02,19,10,03,3.70
2006,02,19,10,04,3.70
2006,02,19,10,05,3.80
2006,02,19,10,06,3.80
2006,02,19,10,07,3.80
2006,02,19,10,08,4.00
2006,02,19,10,09,4.00
2006,02,19,10,10,4.10
2006,02,19,10,11,4.20
2006,02,19,10,12,4.30
2006,02,19,10,13,4.50
2006,02,19,10,14,4.60
2006,02,19,10,15,4.60
2006,02,19,10,16,4.70
2006,02,19,10,17,4.80
2006,02,19,10,18,4.90
2006,02,19,10,19,5.00
2006,02,19,10,20,5.10
2006,02,19,10,21,5.10
2006,02,19,10,22,5.10
2006,02,19,10,23,5.10
2006,02,19,10,24,5.10
2006,02,19,10,25,5.10
2006,02,19,10,26,5.20
2006,02,19,10,27,5.20
2006,02,19,10,28,5.10
2006,02,19,10,29,5.00
2006,02,19,10,30,4.80
2006,02,19,10,31,4.70
2006,02,19,10,32,4.70
2006,02,19,10,33,4.60
2006,02,19,10,34,4.60
2006,02,19,10,35,4.60
2006,02,19,10,36,4.60
2006,02,19,10,37,4.60
2006,02,19,10,38,4.60
2006,02,19,10,39,4.70
2006,02,19,10,40,4.70
2006,02,19,10,41,4.80
2006,02,19,10,42,4.80
2006,02,19,10,43,4.70
2006,02,19,10,44,4.70
2006,02,19,10,45,4.60
2006,02,19,10,46,4.60
2006,02,19,10,47,4.60
2006,02,19,10,48,4.50
2006,02,19,10,49,4.50
2006,02,19,10,50,4.50
2006,02,19,10,51,4.50
2006,02,19,10,52,4.60
2006,02,19,10,53,4.60
2006,02,19,10,54,4.70
2006,02,19,10,55,4.80
2006,02,19,10,56,4.90
2006,02,19,10,57,4.90
2006,02,19,10,58,4.90
2006,02,19,10,59,5.00
2006,02,19,11,00,5.10
2006,02,19,11,01,5.10
2006,02,19,11,02,5.10
2006,02,19,11,03,5.20
2006,02,19,11,04,5.20
2006,02,19,11,05,5.20
2006,02,19,11,06,5.20
2006,02,19,11,07,5.30
2006,02,19,11,08,5.30
2006,02,19,11,09,5.20
2006,02,19,11,10,5.20
2006,02,19,11,11,5.20
2006,02,19,11,12,5.20
2006,02,19,11,13,5.30
2006,02,19,11,14,5.30
2006,02,19,11,15,5.30
2006,02,19,11,16,5.30
2006,02,19,11,17,5.30
2006,02,19,11,18,5.20
2006,02,19,11,19,5.20
2006,02,19,11,20,5.20
2006,02,19,11,21,5.30
2006,02,19,11,22,5.30
2006,02,19,11,23,5.30
2006,02,19,11,24,5.30
2006,02,19,11,25,5.40
2006,02,19,11,26,5.50
2006,02,19,11,27,5.70
2006,02,19,11,28,5.80
2006,02,19,11,29,5.80
2006,02,19,11,30,5.80
2006,02,19,11,31,5.80
2006,02,19,11,32,5.80
2006,02,19,11,33,5.80
2006,02,19,11,34,5.80
2006,02,19,11,35,5.80
2006,02,19,11,36,5.80
2006,02,19,11,37,5.80
2006,02,19,11,38,5.70
2006,02,19,11,39,5.70
2006,02,19,11,40,5.70
2006,02,19,11,41,5.70
2006,02,19,11,42,5.70
2006,02,19,11,43,5.70
2006,02,19,11,44,5.70
2006,02,19,11,45,5.70
2006,02,19,11,46,5.70
2006,02,19,11,47,5.70
2006,02,19,11,48,5.80
2006,02,19,11,49,5.90
2006,02,19,11,50,6.10
2006,02,19,11,51,6.20
2006,02,19,11,52,6.30
2006,02,19,11,53,6.30
2006,02,19,11,54,6.30
2006,02,19,11,55,6.30
2006,02,19,11,56,6.40
2006,02,19,11,57,6.30
2006,02,19,11,58,6.20
2006,02,19,11,59,6.00
2006,02,19,12,00,6.00
2006,02,19,12,01,6.00
2006,02,19,12,02,6.00
2006,02,19,12,03,6.00
2006,02,19,12,04,6.00
2006,02,19,12,05,5.90
2006,02,19,12,06,5.80
2006,02,19,12,07,5.70
2006,02,19,12,08,5.70
2006,02,19,12,09,5.70
2006,02,19,12,10,5.70
2006,02,19,12,11,5.70
2006,02,19,12,12,5.70
2006,02,19,12,13,5.70
2006,02,19,12,14,5.70
2006,02,19,12,15,5.70
2006,02,19,12,16,5.70
2006,02,19,12,17,5.80
2006,02,19,12,18,5.80
2006,02,19,12,19,5.80
2006,02,19,12,20,5.80
2006,02,19,12,21,5.90
2006,02,19,12,22,5.80
2006,02,19,12,23,5.80
2006,02,19,12,24,5.90
2006,02,19,12,25,6.00
2006,02,19,12,26,6.10
2006,02,19,12,27,6.20
2006,02,19,12,28,6.20
2006,02,19,12,29,6.30
2006,02,19,12,30,6.40
2006,02,19,12,31,6.40
2006,02,19,12,32,6.30
2006,02,19,12,33,6.20
2006,02,19,12,34,6.20
2006,02,19,12,35,6.20
2006,02,19,12,36,6.20
2006,02,19,12,37,6.20
2006,02,19,12,38,6.30
2006,02,19,12,39,6.10
2006,02,19,12,40,6.00
2006,02,19,12,41,5.90
2006,02,19,12,42,5.90
2006,02,19,12,43,6.00
2006,02,19,12,44,6.00
2006,02,19,12,45,6.00
2006,02,19,12,46,5.80
2006,02,19,12,47,5.70
2006,02,19,12,48,5.70
2006,02,19,12,49,5.70
2006,02,19,12,50,5.70
2006,02,19,12,51,5.70
2006,02,19,12,52,5.70
2006,02,19,12,53,5.70
2006,02,19,12,54,5.70
2006,02,19,12,55,5.70
2006,02,19,12,56,5.80
2006,02,19,12,57,5.90
2006,02,19,12,58,5.90
2006,02,19,12,59,5.90
2006,02,19,13,00,5.80
2006,02,19,13,01,5.80
2006,02,19,13,02,6.00
2006,02,19,13,03,6.00
2006,02,19,13,04,5.90
2006,02,19,13,05,5.80
2006,02,19,13,06,5.90
2006,02,19,13,07,6.00
2006,02,19,13,08,6.00
2006,02,19,13,09,6.10
2006,02,19,13,10,6.10
2006,02,19,13,11,6.20
2006,02,19,13,12,6.20
2006,02,19,13,13,6.20
2006,02,19,13,14,6.20
2006,02,19,13,15,6.20
2006,02,19,13,16,6.20
2006,02,19,13,17,6.30
2006,02,19,13,18,6.30
2006,02,19,13,19,6.30
2006,02,19,13,20,6.30
2006,02,19,13,21,6.30
2006,02,19,13,22,6.20
2006,02,19,13,23,6.30
2006,02,19,13,24,6.20
2006,02,19,13,25,6.20
2006,02,19,13,26,6.20
2006,02,19,13,27,6.20
2006,02,19,13,28,6.20
2006,02,19,13,29,6.10
2006,02,19,13,30,6.00
2006,02,19,13,31,6.00
2006,02,19,13,32,5.90
2006,02,19,13,33,5.90
2006,02,19,13,34,5.90
2006,02,19,13,35,6.00
2006,02,19,13,36,6.00
2006,02,19,13,37,6.00
2006,02,19,13,38,6.10
2006,02,19,13,39,6.20
2006,02,19,13,40,6.30
2006,02,19,13,41,6.40
2006,02,19,13,42,6.50
2006,02,19,13,43,6.60
2006,02,19,13,44,6.50
2006,02,19,13,45,6.50
2006,02,19,13,46,6.40
2006,02,19,13,47,6.40
2006,02,19,13,48,6.30
2006,02,19,13,49,6.30
2006,02,19,13,50,6.20
2006,02,19,13,51,6.00
2006,02,19,13,52,6.00
2006,02,19,13,53,6.00
2006,02,19,13,54,5.90
2006,02,19,13,55,5.90
2006,02,19,13,56,5.80
2006,02,19,13,57,5.70
2006,02,19,13,58,5.70
2006,02,19,13,59,5.70
2006,02,19,14,00,5.70
2006,02,19,14,01,5.80
2006,02,19,14,02,5.80
2006,02,19,14,03,5.80
2006,02,19,14,04,5.90
2006,02,19,14,05,5.80
2006,02,19,14,06,5.70
2006,02,19,14,07,5.70
2006,02,19,14,08,5.70
2006,02,19,14,09,5.70
2006,02,19,14,10,5.70
2006,02,19,14,11,5.70
2006,02,19,14,12,5.60
2006,02,19,14,13,5.50
2006,02,19,14,14,5.50
2006,02,19,14,15,5.50
2006,02,19,14,16,5.60
2006,02,19,14,17,5.70
2006,02,19,14,18,5.80
2006,02,19,14,19,5.80
2006,02,19,14,20,5.90
2006,02,19,14,21,6.00
2006,02,19,14,22,6.00
2006,02,19,14,23,6.00
2006,02,19,14,24,5.90
2006,02,19,14,25,5.90
2006,02,19,14,26,5.80
2006,02,19,14,27,5.90
2006,02,19,14,28,5.90
2006,02,19,14,29,5.90
2006,02,19,14,30,5.90
2006,02,19,14,31,5.80
2006,02,19,14,32,5.70
2006,02,19,14,33,5.70
2006,02,19,14,34,5.70
2006,02,19,14,35,5.70
2006,02,19,14,36,5.70
2006,02,19,14,37,5.70
2006,02,19,14,38,5.70
2006,02,19,14,39,5.70
2006,02,19,14,40,5.70
2006,02,19,14,41,5.70
2006,02,19,14,42,5.70
2006,02,19,14,43,5.70
2006,02,19,14,44,5.70
2006,02,19,14,45,5.70
2006,02,19,14,46,5.70
2006,02,19,14,47,5.70
2006,02,19,14,48,5.70
2006,02,19,14,49,5.60
2006,02,19,14,50,5.60
2006,02,19,14,51,5.60
2006,02,19,14,52,5.50
2006,02,19,14,53,5.50
2006,02,19,14,54,5.50
2006,02,19,14,55,5.40
2006,02,19,14,56,5.30
2006,02,19,14,57,5.30
2006,02,19,14,58,5.30
2006,02,19,14,59,5.40
2006,02,19,15,00,5.30
2006,02,19,15,01,5.30
2006,02,19,15,02,5.30
2006,02,19,15,03,5.30
2006,02,19,15,04,5.40
2006,02,19,15,05,5.40
2006,02,19,15,06,5.40
2006,02,19,15,07,5.40
2006,02,19,15,08,5.40
2006,02,19,15,09,5.40
2006,02,19,15,10,5.40
2006,02,19,15,11,5.40
2006,02,19,15,12,5.30
2006,02,19,15,13,5.30
2006,02,19,15,14,5.40
2006,02,19,15,15,5.40
2006,02,19,15,16,5.50
2006,02,19,15,17,5.50
2006,02,19,15,18,5.50
2006,02,19,15,19,5.60
2006,02,19,15,20,5.60
2006,02,19,15,21,5.60
2006,02,19,15,22,5.60
2006,02,19,15,23,5.70
2006,02,19,15,24,5.70
2006,02,19,15,25,5.60
2006,02,19,15,26,5.60
2006,02,19,15,27,5.60
2006,02,19,15,28,5.50
2006,02,19,15,29,5.50
2006,02,19,15,30,5.50
2006,02,19,15,31,5.50
2006,02,19,15,32,5.50
2006,02,19,15,33,5.50
2006,02,19,15,34,5.60
2006,02,19,15,35,5.60
2006,02,19,15,36,5.50
2006,02,19,15,37,5.50
2006,02,19,15,38,5.50
2006,02,19,15,39,5.50
2006,02,19,15,40,5.50
2006,02,19,15,41,5.40
2006,02,19,15,42,5.50
2006,02,19,15,43,5.50
2006,02,19,15,44,5.50
2006,02,19,15,45,5.60
2006,02,19,15,46,5.60
2006,02,19,15,47,5.70
2006,02,19,15,48,5.70
2006,02,19,15,49,5.60
2006,02,19,15,50,5.60
2006,02,19,15,51,5.60
2006,02,19,15,52,5.60
2006,02,19,15,53,5.70
2006,02,19,15,54,5.70
2006,02,19,15,55,5.70
2006,02,19,15,56,5.70
2006,02,19,15,57,5.70
2006,02,19,15,58,5.60
2006,02,19,15,59,5.60
2006,02,19,16,00,5.60
2006,02,19,16,01,5.60
2006,02,19,16,02,5.60
2006,02,19,16,03,5.60
2006,02,19,16,04,5.50
2006,02,19,16,05,5.50
2006,02,19,16,06,5.50
2006,02,19,16,07,5.50
2006,02,19,16,08,5.50
2006,02,19,16,09,5.50
2006,02,19,16,10,5.50
2006,02,19,16,11,5.50
2006,02,19,16,12,5.50
2006,02,19,16,13,5.50
2006,02,19,16,14,5.50
2006,02,19,16,15,5.50
2006,02,19,16,16,5.50
2006,02,19,16,17,5.50
2006,02,19,16,18,5.50
2006,02,19,16,19,5.50
2006,02,19,16,20,5.50
2006,02,19,16,21,5.50
2006,02,19,16,22,5.50
2006,02,19,16,23,5.50
2006,02,19,16,24,5.50
2006,02,19,16,25,5.50
2006,02,19,16,26,5.50
2006,02,19,16,27,5.50
2006,02,19,16,28,5.50
2006,02,19,16,29,5.40
2006,02,19,16,30,5.40
2006,02,19,16,31,5.40
2006,02,19,16,32,5.30
2006,02,19,16,33,5.30
2006,02,19,16,34,5.30
2006,02,19,16,35,5.30
2006,02,19,16,36,5.30
2006,02,19,16,37,5.30
2006,02,19,16,38,5.30
2006,02,19,16,39,5.30
2006,02,19,16,40,5.20
2006,02,19,16,41,5.20
2006,02,19,16,42,5.20
2006,02,19,16,43,5.20
2006,02,19,16,44,5.20
2006,02,19,16,45,5.10
2006,02,19,16,46,5.10
2006,02,19,16,47,5.10
2006,02,19,16,48,5.10
2006,02,19,16,49,5.10
2006,02,19,16,50,5.10
2006,02,19,16,51,5.10
2006,02,19,16,52,5.10
2006,02,19,16,53,5.10
2006,02,19,16,54,5.10
2006,02,19,16,55,5.10
2006,02,19,16,56,5.10
2006,02,19,16,57,5.10
2006,02,19,16,58,5.10
2006,02,19,16,59,5.10
2006,02,19,17,00,5.00
2006,02,19,17,01,4.90
2006,02,19,17,02,4.90
2006,02,19,17,03,4.90
2006,02,19,17,04,4.90
2006,02,19,17,05,4.80
2006,02,19,17,06,4.80
2006,02,19,17,07,4.80
2006,02,19,17,08,4.80
2006,02,19,17,09,4.80
2006,02,19,17,10,4.80
2006,02,19,17,11,4.70
2006,02,19,17,12,4.70
2006,02,19,17,13,4.70
2006,02,19,17,14,4.70
2006,02,19,17,15,4.60
2006,02,19,17,16,4.60
2006,02,19,17,17,4.60
2006,02,19,17,18,4.60
2006,02,19,17,19,4.60
2006,02,19,17,20,4.60
2006,02,19,17,21,4.60
2006,02,19,17,22,4.50
2006,02,19,17,23,4.50
2006,02,19,17,24,4.50
2006,02,19,17,25,4.50
2006,02,19,17,26,4.50
2006,02,19,17,27,4.50
2006,02,19,17,28,4.50
2006,02,19,17,29,4.50
2006,02,19,17,30,4.50
2006,02,19,17,31,4.40
2006,02,19,17,32,4.40
2006,02,19,17,33,4.40
2006,02,19,17,34,4.30
2006,02,19,17,35,4.30
2006,02,19,17,36,4.30
2006,02,19,17,37,4.30
2006,02,19,17,38,4.20
2006,02,19,17,39,4.20
2006,02,19,17,40,4.20
2006,02,19,17,41,4.20
2006,02,19,17,42,4.20
2006,02,19,17,43,4.20
2006,02,19,17,44,4.20
2006,02,19,17,45,4.20
2006,02,19,17,46,4.20
2006,02,19,17,47,4.20
2006,02,19,17,48,4.20
2006,02,19,17,49,4.20
2006,02,19,17,50,4.20
2006,02,19,17,51,4.20
2006,02,19,17,52,4.20
2006,02,19,17,53,4.20
2006,02,19,17,54,4.20
2006,02,19,17,55,4.20
2006,02,19,17,56,4.20
2006,02,19,17,57,4.20
2006,02,19,17,58,4.20